Hourly Weather Acapetagua

Today, 16 January, Saturday

Time Temperature Precipitation Wind Pressure Humidity
00:00 +11°C° 0 mm 1 mps 547 mmHg 72%
01:00 +10°C° 0 mm 0 mps 546 mmHg 73%
02:00 +9°C° 0 mm 0 mps 546 mmHg 75%
03:00 +9°C° 0 mm 0 mps 546 mmHg 77%
04:00 +9°C° 0 mm 0 mps 546 mmHg 79%
05:00 +8°C° 0 mm 0 mps 546 mmHg 77%
06:00 +9°C° 0 mm 0 mps 547 mmHg 75%
07:00 +10°C° 0 mm 0 mps 547 mmHg 73%
08:00 +11°C° 0 mm 0 mps 548 mmHg 70%
09:00 +12°C° 0 mm 0 mps 549 mmHg 62%
10:00 +15°C° 0 mm 1 mps 549 mmHg 55%
11:00 +18°C° 0 mm 1 mps 550 mmHg 47%
12:00 +18°C° 0.2 mm 1 mps 549 mmHg 46%
13:00 +18°C° 0.2 mm 1 mps 548 mmHg 46%
14:00 +18°C° 0.2 mm 1 mps 547 mmHg 46%
15:00 +16°C° 0.4 mm 2 mps 547 mmHg 50%
16:00 +15°C° 0.4 mm 2 mps 547 mmHg 55%
17:00 +14°C° 0.4 mm 2 mps 546 mmHg 60%
18:00 +14°C° 0.1 mm 2 mps 547 mmHg 62%
19:00 +13°C° 0.1 mm 2 mps 547 mmHg 64%
20:00 +13°C° 0.1 mm 2 mps 547 mmHg 66%
21:00 +13°C° 0.1 mm 1 mps 547 mmHg 67%
22:00 +12°C° 0.1 mm 1 mps 547 mmHg 68%
23:00 +12°C° 0.1 mm 1 mps 547 mmHg 69%

Tomorrow, 17 January, Sunday

Time Temperature Precipitation Wind Pressure Humidity
00:00 +11°C° 0.1 mm 1 mps 546 mmHg 70%
01:00 +11°C° 0.1 mm 1 mps 546 mmHg 72%
02:00 +10°C° 0.1 mm 1 mps 545 mmHg 74%
03:00 +10°C° 0 mm 1 mps 545 mmHg 73%
04:00 +10°C° 0 mm 1 mps 545 mmHg 73%
05:00 +10°C° 0 mm 1 mps 545 mmHg 72%
06:00 +11°C° 0 mm 1 mps 546 mmHg 67%
07:00 +11°C° 0 mm 0 mps 547 mmHg 63%
08:00 +12°C° 0 mm 0 mps 547 mmHg 58%
09:00 +13°C° 0 mm 0 mps 548 mmHg 52%
10:00 +16°C° 0 mm 1 mps 549 mmHg 46%
11:00 +19°C° 0 mm 1 mps 550 mmHg 40%
12:00 +18°C° 0.3 mm 1 mps 549 mmHg 40%
13:00 +18°C° 0.3 mm 1 mps 548 mmHg 40%
14:00 +18°C° 0.3 mm 1 mps 547 mmHg 40%
15:00 +16°C° 0.6 mm 1 mps 547 mmHg 45%
16:00 +15°C° 0.6 mm 1 mps 547 mmHg 51%
17:00 +14°C° 0.6 mm 1 mps 546 mmHg 56%
18:00 +13°C° 0.2 mm 1 mps 546 mmHg 59%
19:00 +12°C° 0.2 mm 1 mps 547 mmHg 63%
20:00 +12°C° 0.2 mm 1 mps 547 mmHg 66%
21:00 +11°C° 0 mm 1 mps 547 mmHg 65%
22:00 +11°C° 0 mm 1 mps 547 mmHg 65%
23:00 +10°C° 0 mm 0 mps 547 mmHg 64%

Day after tomorrow, 18 January, Monday

Time Temperature Precipitation Wind Pressure Humidity
00:00 +10°C° 0 mm 0 mps 546 mmHg 66%
01:00 +9°C° 0 mm 0 mps 546 mmHg 68%
02:00 +10°C° 0 mm 1 mps 545 mmHg 69%
03:00 +9°C° 0 mm 1 mps 545 mmHg 72%
04:00 +8°C° 0 mm 0 mps 545 mmHg 75%
05:00 +8°C° 0 mm 0 mps 545 mmHg 77%
06:00 +9°C° 0 mm 0 mps 546 mmHg 75%
07:00 +10°C° 0 mm 0 mps 547 mmHg 73%
08:00 +11°C° 0 mm 0 mps 548 mmHg 70%
09:00 +13°C° 0 mm 1 mps 548 mmHg 63%
10:00 +15°C° 0 mm 1 mps 549 mmHg 56%
11:00 +16°C° 0 mm 1 mps 549 mmHg 50%
12:00 +17°C° 0.2 mm 2 mps 548 mmHg 48%
13:00 +17°C° 0.2 mm 2 mps 548 mmHg 47%
14:00 +17°C° 0.2 mm 2 mps 547 mmHg 46%
15:00 +16°C° 0.2 mm 2 mps 547 mmHg 50%
16:00 +15°C° 0.2 mm 2 mps 547 mmHg 54%
17:00 +14°C° 0.2 mm 2 mps 546 mmHg 58%
18:00 +13°C° 0 mm 2 mps 546 mmHg 62%
19:00 +13°C° 0 mm 1 mps 546 mmHg 65%
20:00 +12°C° 0 mm 1 mps 546 mmHg 68%
21:00 +11°C° 0 mm 1 mps 546 mmHg 70%
22:00 +11°C° 0 mm 1 mps 546 mmHg 71%
23:00 +11°C° 0 mm 1 mps 546 mmHg 72%

19 January, Tuesday

Time Temperature Precipitation Wind Pressure Humidity
00:00 +10°C° 0 mm 1 mps 546 mmHg 73%
01:00 +10°C° 0 mm 1 mps 546 mmHg 75%
02:00 +10°C° 0 mm 1 mps 545 mmHg 76%
03:00 +10°C° 0 mm 1 mps 545 mmHg 77%
04:00 +9°C° 0 mm 1 mps 545 mmHg 77%
05:00 +9°C° 0 mm 1 mps 545 mmHg 78%
06:00 +9°C° 0 mm 0 mps 546 mmHg 74%
07:00 +10°C° 0 mm 0 mps 548 mmHg 69%
08:00 +12°C° 0 mm 0 mps 549 mmHg 65%
09:00 +13°C° 0 mm 0 mps 549 mmHg 58%
10:00 +16°C° 0 mm 1 mps 550 mmHg 50%
11:00 +19°C° 0 mm 1 mps 550 mmHg 42%
12:00 +19°C° 0 mm 1 mps 550 mmHg 40%
13:00 +20°C° 0 mm 1 mps 550 mmHg 37%
14:00 +20°C° 0 mm 1 mps 549 mmHg 35%
15:00 +18°C° 0.2 mm 2 mps 549 mmHg 41%
16:00 +17°C° 0.2 mm 2 mps 548 mmHg 47%
17:00 +16°C° 0.2 mm 2 mps 548 mmHg 52%
18:00 +15°C° 0 mm 2 mps 548 mmHg 56%
19:00 +14°C° 0 mm 2 mps 548 mmHg 59%
20:00 +13°C° 0 mm 1 mps 548 mmHg 63%
21:00 +13°C° 0 mm 1 mps 548 mmHg 64%
22:00 +13°C° 0 mm 1 mps 548 mmHg 65%
23:00 +12°C° 0 mm 1 mps 548 mmHg 66%

20 January, Wednesday

Time Temperature Precipitation Wind Pressure Humidity
00:00 +12°C° 0 mm 1 mps 548 mmHg 68%
01:00 +12°C° 0 mm 1 mps 548 mmHg 69%
02:00 +10°C° 0 mm 0 mps 547 mmHg 70%
03:00 +11°C° 0 mm 1 mps 547 mmHg 73%
04:00 +11°C° 0 mm 1 mps 547 mmHg 75%
05:00 +10°C° 0 mm 1 mps 547 mmHg 78%
06:00 +11°C° 0 mm 1 mps 548 mmHg 78%
07:00 +11°C° 0 mm 1 mps 548 mmHg 77%
08:00 +12°C° 0 mm 1 mps 549 mmHg 77%
09:00 +13°C° 0 mm 1 mps 549 mmHg 70%
10:00 +14°C° 0 mm 2 mps 550 mmHg 63%
11:00 +16°C° 0 mm 2 mps 550 mmHg 56%
12:00 +16°C° 0 mm 2 mps 550 mmHg 54%
13:00 +17°C° 0 mm 2 mps 550 mmHg 52%
14:00 +17°C° 0 mm 2 mps 549 mmHg 49%
15:00 +16°C° 0.1 mm 2 mps 549 mmHg 52%
16:00 +16°C° 0.1 mm 2 mps 549 mmHg 55%
17:00 +15°C° 0.1 mm 2 mps 548 mmHg 58%
18:00 +14°C° 0 mm 2 mps 548 mmHg 60%
19:00 +13°C° 0 mm 1 mps 548 mmHg 63%
20:00 +12°C° 0 mm 1 mps 548 mmHg 65%
21:00 +11°C° 0 mm 1 mps 548 mmHg 67%
22:00 +11°C° 0 mm 1 mps 548 mmHg 68%
23:00 +11°C° 0 mm 1 mps 548 mmHg 69%

21 January, Thursday

Time Temperature Precipitation Wind Pressure Humidity
00:00 +10°C° 0 mm 1 mps 548 mmHg 73%
01:00 +10°C° 0 mm 1 mps 547 mmHg 76%
02:00 +10°C° 0 mm 1 mps 547 mmHg 79%
03:00 +10°C° 0 mm 1 mps 547 mmHg 79%
04:00 +9°C° 0 mm 1 mps 547 mmHg 79%
05:00 +9°C° 0 mm 1 mps 547 mmHg 79%
06:00 +9°C° 0 mm 0 mps 548 mmHg 73%
07:00 +10°C° 0 mm 0 mps 548 mmHg 67%
08:00 +11°C° 0 mm 0 mps 549 mmHg 61%
09:00 +14°C° 0 mm 1 mps 550 mmHg 52%
10:00 +16°C° 0 mm 1 mps 550 mmHg 42%
11:00 +17°C° 0 mm 2 mps 550 mmHg 33%
12:00 +18°C° 0 mm 2 mps 550 mmHg 30%
13:00 +19°C° 0 mm 2 mps 550 mmHg 27%
14:00 +19°C° 0 mm 3 mps 549 mmHg 24%
15:00 +18°C° 0 mm 3 mps 549 mmHg 28%
16:00 +17°C° 0 mm 3 mps 548 mmHg 32%
17:00 +16°C° 0 mm 2 mps 547 mmHg 36%
18:00 +14°C° 0 mm 2 mps 547 mmHg 40%
19:00 +13°C° 0 mm 2 mps 547 mmHg 44%
20:00 +12°C° 0 mm 2 mps 547 mmHg 48%
21:00 +10°C° 0 mm 2 mps 547 mmHg 49%
22:00 +11°C° 0 mm 1 mps 547 mmHg 50%
23:00 +10°C° 0 mm 1 mps 547 mmHg 51%
Show more